sat.trackr.live / text

‹ back to catalog

STARLINK-2610

NORAD 48376 · 2021-038Z

PAYLOAD ACTIVE UNKNOWN

§ Identity

Operator
Country
US
Launch date
2021-05-04
Launch site
AFETR
Launch vehicle
Mass (kg)
RCS (m²)

Purposes: comms

External: N2YO · Heavens-Above · Gunter

§ Orbital elements

Epoch: 2026-05-25T06:00:02.000160Z

Period
93.10 min
Inclination
53.1599°
Eccentricity
0.0001492
Mean motion
15.46770422 rev/d
Perigee alt
425.2 km
Apogee alt
427.2 km
Semi-major
6,804.3 km
B*
5.4732e-5
RAAN
351.0782°
Arg perigee
92.3517°
Mean anomaly
187.7375°
Rev number
586

§ Raw data

STARLINK-26101 48376U 21038Z   26145.25002315  .00002352  00000+0  54732-4 0  99942 48376  53.1599 351.0782 0001492  92.3517 187.7375 15.46770422  5866

JSON: /api/v1/satellites/48376 · /tle

For live sub-satellite position, see the globe view (requires WebGL).

§ Visibility from observer

Set your observer location to see the next 7 days of passes ≥ 10°. The values pass through the URL so the page stays shareable.

No JS? Fill the form by hand. The geolocation button needs JavaScript.